EW9345 Weather Reports


Display with metric or nautical units.
time (UTC)temp
F
wind
direction
speed
MPH
gust
MPH
rain 1hr
in
rain 24hr
in
rain mn
in
humidity
%
barometer
mb
20260504182658 71 244 0.0 0.0 0.00 0.00 0.00 32 1008.6
20260504182547 72 221 0.0 0.0 0.00 0.00 0.00 32 1008.6
20260504182542 72 155 0.0 0.0 0.00 0.00 0.00 32 1008.6
20260504181158 72 163 0.0 0.0 0.00 0.00 0.00 33 1008.7
20260504180659 71 150 0.0 0.0 0.00 0.00 0.00 33 1008.8
20260504180158 71 153 0.0 0.0 0.00 0.00 0.00 33 1008.8
20260504175658 70 232 0.0 0.0 0.00 0.00 0.00 34 1008.9
20260504175158 70 207 0.0 0.0 0.00 0.00 0.00 32 1009.1
20260504174952 70 219 0.0 0.0 0.00 0.00 0.00 33 1009.2
20260504174202 70 302 0.0 0.0 0.00 0.00 0.00 34 1009.2
20260504173953 70 236 0.0 0.0 0.00 0.00 0.00 35 1009.2
20260504173202 70 276 0.0 0.0 0.00 0.00 0.00 34 1009.2
20260504172701 70 215 0.0 0.0 0.00 0.00 0.00 35 1009.2
20260504172156 70 266 0.0 0.0 0.00 0.00 0.00 34 1009.3
20260504171649 69 211 0.0 0.0 0.00 0.00 0.00 35 1009.4
20260504171144 69 138 0.0 0.0 0.00 0.00 0.00 34 1009.4
20260504170643 69 272 0.0 0.0 0.00 0.00 0.00 34 1009.6
20260504170440 69 311 0.0 0.0 0.00 0.00 0.00 35 1009.7
20260504160130 68 227 0.0 0.0 0.00 0.00 0.00 34 1010.5
20260504151123 66 281 0.0 0.0 0.00 0.00 0.00 36 1011.0
20260504150625 66 167 0.0 0.0 0.00 0.00 0.00 37 1011.1
20260504150423 66 220 0.0 0.0 0.00 0.00 0.00 39 1011.1
20260504141112 63 259 0.0 0.0 0.00 0.00 0.00 43 1011.4
20260504140612 62 113 0.0 0.0 0.00 0.00 0.00 43 1011.4
20260504140112 62 250 0.0 0.0 0.00 0.00 0.00 43 1011.4
20260504130613 58 221 0.0 0.0 0.00 0.00 0.00 50 1012.0
20260504130112 58 216 0.0 0.0 0.00 0.00 0.00 53 1012.0
20260504110553 0 0.0 0.0 0.00 0.00 0.00 1012.4
20260504081640 51 155 0.0 0.0 0.00 0.00 0.00 49 1011.7
20260504081216 51 179 0.0 0.0 0.00 0.00 0.00 49 1011.7
20260504081200 51 232 0.0 0.0 0.00 0.00 0.00 49 1011.7
20260504080414 51 165 0.0 0.0 0.00 0.00 0.00 49 1011.7
20260504050346 52 225 0.0 0.0 0.00 0.00 0.00 49 1011.2
20260504045846 52 284 0.0 0.0 0.00 0.00 0.00 49 1011.1
20260504045349 52 300 0.0 0.0 0.00 0.00 0.00 49 1011.2
20260504044845 53 258 0.0 0.0 0.00 0.00 0.00 48 1011.2
20260504044346 53 261 0.0 0.0 0.00 0.00 0.00 49 1011.2
20260504043845 53 217 0.0 0.0 0.00 0.00 0.00 48 1011.2
20260504043345 53 301 0.0 0.0 0.00 0.00 0.00 47 1011.1
20260504042846 53 269 0.0 0.0 0.00 0.00 0.00 47 1011.1
20260504042345 53 236 0.0 0.0 0.00 0.00 0.00 46 1011.0
20260504041844 53 190 0.0 0.0 0.00 0.00 0.00 46 1010.9
20260504041346 53 243 0.0 0.0 0.00 0.00 0.00 46 1010.8
20260504040845 53 226 0.0 0.0 0.00 0.00 0.00 46 1010.9
20260504040346 53 236 0.0 0.0 0.00 0.00 0.00 46 1010.9
20260504035846 53 194 0.0 0.0 0.00 0.00 0.00 45 1010.9
20260504035345 53 213 0.0 0.0 0.00 0.00 0.00 45 1010.9
20260504034845 53 269 0.0 0.0 0.00 0.00 0.00 45 1010.9
20260504034345 53 203 0.0 0.0 0.00 0.00 0.00 45 1010.8
20260504034145 53 269 0.0 0.0 0.00 0.00 0.00 44 1010.8
20260504033345 54 264 0.0 0.0 0.00 0.00 0.00 46 1010.8
20260504032845 54 252 0.0 0.0 0.00 0.00 0.00 44 1010.8
20260504032345 54 278 0.0 0.0 0.00 0.00 0.00 45 1010.8
20260504031843 54 278 0.0 0.0 0.00 0.00 0.00 44 1010.7
20260504031341 54 284 0.0 0.0 0.00 0.00 0.00 45 1010.7
20260504030841 54 239 0.0 0.0 0.00 0.00 0.00 43 1010.7
20260504030340 54 138 0.0 0.0 0.00 0.00 0.00 43 1010.7
20260504025844 54 224 0.0 0.0 0.00 0.00 0.00 43 1010.7
20260504025342 54 285 0.0 0.0 0.00 0.00 0.00 43 1010.7
20260504025125 54 298 0.0 0.0 0.00 0.00 0.00 42 1010.6
20260504024327 54 216 0.0 0.0 0.00 0.00 0.00 42 1010.7
20260504023825 54 183 0.0 0.0 0.00 0.00 0.00 42 1010.7
20260504023328 54 219 0.0 0.0 0.00 0.00 0.00 43 1010.7
20260504022826 54 259 0.0 0.0 0.00 0.00 0.00 42 1010.7
20260504022422 55 191 0.0 0.0 0.00 0.00 0.00 41 1010.7
20260504022358 54 216 0.0 0.0 0.00 0.00 0.00 41 1010.7
20260504021322 55 288 0.0 0.0 0.00 0.00 0.00 41 1010.7
20260504020822 55 231 0.0 0.0 0.00 0.00 0.00 41 1010.7
20260504020320 55 225 0.0 0.0 0.00 0.00 0.00 41 1010.7
20260504015819 55 260 0.0 0.0 0.00 0.00 0.00 41 1010.6
20260504015316 54 295 0.0 0.0 0.00 0.00 0.00 41 1010.6
20260504014817 54 226 0.0 0.0 0.00 0.00 0.00 41 1010.6
20260504014312 54 214 0.0 0.0 0.00 0.00 0.00 41 1010.6
20260504013810 54 219 0.0 0.0 0.00 0.00 0.00 40 1010.5
20260504013401 55 219 0.0 0.0 0.00 0.00 0.00 38 1010.5
20260504013339 54 219 0.0 0.0 0.00 0.00 0.00 39 1010.4
20260504012309 55 148 0.0 0.0 0.00 0.00 0.00 37 1010.4
20260504011809 55 214 0.0 0.0 0.00 0.00 0.00 38 1010.4
20260504011309 55 151 0.0 0.0 0.00 0.00 0.00 37 1010.3
20260504010809 55 151 0.0 0.0 0.00 0.00 0.00 37 1010.3
20260504010310 55 183 0.0 0.0 0.00 0.00 0.00 37 1010.1
20260504005809 55 233 0.0 0.0 0.00 0.00 0.00 37 1010.1
20260504005603 55 233 0.0 0.0 0.00 0.00 0.00 37 1010.1
20260504004808 56 233 0.0 0.0 0.00 0.00 0.00 36 1010.0
20260504004310 56 233 0.0 0.0 0.00 0.00 0.00 36 1010.0
20260504003810 56 233 0.0 0.0 0.00 0.00 0.00 35 1010.0
20260504003310 57 233 0.0 0.0 0.00 0.00 0.00 35 1009.9
20260504002809 57 233 0.0 0.0 0.00 0.00 0.00 34 1009.8
20260504002310 58 233 0.0 0.0 0.00 0.00 0.00 34 1009.7
20260504001804 58 233 0.0 0.0 0.00 0.00 0.00 34 1009.6
20260504001304 59 240 0.0 0.0 0.00 0.00 0.00 33 1009.5
20260504000806 59 302 0.0 0.0 0.00 0.00 0.00 34 1009.4
20260504000304 59 287 0.0 0.0 0.00 0.00 0.00 32 1009.4
20260503235805 60 290 0.0 0.0 0.00 0.00 0.00 32 1009.3
20260503235304 60 303 0.0 0.0 0.00 0.00 0.00 29 1009.3
20260503234805 60 307 0.0 0.0 0.00 0.00 0.00 29 1009.2
20260503234359 61 293 0.0 0.0 0.00 0.00 0.00 29 1009.0
20260503234335 61 288 0.0 0.0 0.00 0.00 0.00 30 1009.1
20260503233301 61 264 0.0 0.0 0.00 0.00 0.00 29 1008.9
20260503232802 61 295 0.0 0.0 0.00 0.00 0.00 29 1008.9
20260503232301 61 289 0.0 0.0 0.00 0.00 0.00 28 1008.8
20260503231758 61 302 0.0 0.0 0.00 0.00 0.00 29 1008.9
20260503231258 61 284 0.0 0.0 0.00 0.00 0.00 30 1008.9
20260503231054 61 275 0.0 0.0 0.00 0.00 0.00 28 1008.8
20260503230259 61 285 0.0 0.0 0.00 0.00 0.00 27 1008.8
20260503225759 61 296 0.0 0.0 0.00 0.00 0.00 27 1008.8
20260503225550 62 310 0.0 0.0 0.00 0.00 0.00 27 1008.7
20260503224759 62 284 0.0 0.0 0.00 0.00 0.00 28 1008.7
20260503224257 61 274 0.0 0.0 0.00 0.00 0.00 27 1008.7
20260503223756 61 304 0.0 0.0 0.00 0.00 0.00 26 1008.7
20260503223255 61 277 0.0 1.0 0.00 0.00 0.00 28 1008.7
20260503222754 61 274 0.0 1.0 0.00 0.00 0.00 26 1008.7
20260503222253 61 265 0.0 1.0 0.00 0.00 0.00 26 1008.6
20260503221753 61 311 0.0 1.0 0.00 0.00 0.00 27 1008.7
20260503221252 61 288 0.0 1.0 0.00 0.00 0.00 26 1008.7
20260503220752 61 280 0.0 0.0 0.00 0.00 0.00 25 1008.7
20260503220252 61 304 0.0 0.0 0.00 0.00 0.00 28 1008.7
20260503220049 61 339 0.0 0.0 0.00 0.00 0.00 26 1008.7
20260503215544 61 340 0.0 0.0 0.00 0.00 0.00 25 1008.8
20260503215036 61 319 0.0 0.0 0.00 0.00 0.00 27 1008.8
20260503214233 61 321 0.0 0.0 0.00 0.00 0.00 27 1008.8
20260503213727 61 302 0.0 0.0 0.00 0.00 0.00 26 1008.8
20260503213221 60 253 0.0 0.0 0.00 0.00 0.00 26 1008.8
20260503212711 61 305 0.0 0.0 0.00 0.00 0.00 26 1008.8
20260503212205 61 249 0.0 0.0 0.00 0.00 0.00 27 1008.6
20260503211700 60 290 0.0 0.0 0.00 0.00 0.00 27 1008.7
20260503211149 60 281 0.0 0.0 0.00 0.00 0.00 27 1008.8
20260503210936 60 328 0.0 0.0 0.00 0.00 0.00 28 1008.7
20260503210137 60 305 0.0 0.0 0.00 0.00 0.00 26 1008.6
20260503205627 59 323 0.0 0.0 0.00 0.00 0.00 28 1008.6
20260503205121 59 285 0.0 0.0 0.00 0.00 0.00 27 1008.7
20260503204616 59 290 0.0 0.0 0.00 0.00 0.00 29 1008.6
20260503204105 59 302 0.0 0.0 0.00 0.00 0.00 28 1008.6
20260503203601 60 297 0.0 0.0 0.00 0.00 0.00 29 1008.7
20260503203058 59 295 0.0 0.0 0.00 0.00 0.00 28 1008.8
20260503202554 59 298 0.0 0.0 0.00 0.00 0.00 28 1008.8
20260503202054 59 307 0.0 0.0 0.00 0.00 0.00 28 1008.8
20260503201554 59 277 0.0 0.0 0.00 0.00 0.00 28 1008.7
20260503201056 59 279 0.0 0.0 0.00 0.00 0.00 29 1008.8
20260503200554 59 276 0.0 0.0 0.00 0.00 0.00 31 1008.9
20260503200052 58 307 0.0 0.0 0.00 0.00 0.00 29 1008.9
20260503195552 58 295 0.0 0.0 0.00 0.00 0.00 29 1008.9
20260503195158 58 332 0.0 0.0 0.00 0.00 0.00 29 1009.1
20260503195133 58 286 0.0 0.0 0.00 0.00 0.00 30 1009.0
20260503194053 58 310 0.0 0.0 0.00 0.00 0.00 29 1009.1
20260503193552 58 290 0.0 0.0 0.00 0.00 0.00 30 1009.1
20260503193053 58 320 0.0 0.0 0.00 0.00 0.00 29 1009.2
20260503192553 58 285 0.0 0.0 0.00 0.00 0.00 30 1009.2
20260503192048 58 286 0.0 0.0 0.00 0.00 0.00 31 1009.2
20260503191844 58 308 0.0 0.0 0.00 0.00 0.00 31 1009.3
20260503191048 57 321 0.0 0.0 0.00 0.00 0.00 32 1009.3
20260503190550 57 233 0.0 0.0 0.00 0.00 0.00 30 1009.4
20260503190049 57 289 0.0 0.0 0.00 0.00 0.00 31 1009.4
20260503185548 57 315 0.0 0.0 0.00 0.00 0.00 33 1009.5
20260503185048 57 305 0.0 0.0 0.00 0.00 0.00 32 1009.4
20260503184548 57 280 0.0 0.0 0.00 0.00 0.00 31 1009.7
20260503184049 57 297 0.0 0.0 0.00 0.00 0.00 35 1009.6
20260503183549 56 288 0.0 0.0 0.00 0.00 0.00 34 1009.6
20260503183048 56 288 0.0 0.0 0.00 0.00 0.00 33 1009.6